Tracking 25963 objects as of 12-Aug-2022
HD Live streaming from Space Station
objects crossing your sky now

RESURS O1 DEB

Track RESURS O1 DEB now!
10-day predictions


NORAD ID: 47211
Int'l Code: 1994-074CX
Perigee: 617.8 km
Apogee: 619.7 km
Inclination: 97.9 °
Period: 96.9 minutes
Semi major axis: 6989 km
RCS: Unknown
Launch date: November 4, 1994
Source: Commonwealth of Independent States (former USSR) (CIS)
Launch site: TYURATAM MISSILE AND SPACE COMPLEX (TTMTR)

Note: This is SATELLITE DEBRIS
aabbcc
Your satellite tracking list
Your tracking list is empty




NASA's NSSDC Master Catalog

Two Line Element Set (TLE):
1 47211U 94074CX  22224.11080264  .00005615  00000-0  65430-3 0  9991
2 47211  97.8868 272.8157 0001353 279.9077  80.1985 14.85627018 93878
Source of the keplerian elements: AFSPC